SL-19 DEB, 23490

Orbit data source: Space-Track

SL-19 DEB, 23490 is space debris in LEO originally from a launch on Mon, 26 Dec 1994 UTC launched from the Tyuratam Missile And Space Complex (TTMTR). Debris objects in space refer to the collection of defunct objects orbiting the Earth. Examples of debris include non-operational satellites, rocket bodies, and fragments generated from explosions, collisions, or faulty payload assembly.

Loading next visibility...
Identifier
23490, 1994-085N
Orbit
LEO
Country
Flag of CISCIS
Related business
Manufacturer
Unknown
Mission
Spacecraft
Bus & Motor
Unknown
Mass
Unknown
Launch date (UTC)
1994-12-26 (31 years ago)
Launch vehicle
Unknown
Launch site
Tyuratam Missile And Space Complex (TTMTR)
Object type
Payload
Rocket body
Debris
Shape & HBR
Unknown shape, 0.2 m
Radar Cross Section
Medium (>0.1 m² and <1 m²)

Expand to show TLE details & history
Last TLE update: 2 days ago

TLE from 2 days ago
0 SL-19 DEB
1 23490U 94085N   26171.24924926 -.00000050  00000-0 -27499-3 0  9990
2 23490  64.8239 219.7631 0131657   1.3913  64.4136 11.20508956288156
Epoch: 2026-06-20T05:58Z
TLE epoch observation values (Epoch: 2026-06-20T05:58:55.136Z)
Latitude
56.63233°
Longitude
-93.16165°
Altitude
2,019.368 km
Speed
6.915 km/s
True Right ascension
17h 40m 08s
True Declination
56° 29' 53"
Sunlit
Object was in daylight at epoch
Visualization orbit readout
Latitude
Unknown
Longitude
Unknown
Altitude
Unknown
Speed
Unknown
Apparent Right ascension
Unknown
Apparent Declination
Unknown
Sunlit
N/A
Visualization observer readout
Local Sidereal Time
01:06:58
Azimuth
Unknown
Elevation
Unknown
Doppler factor
Unknown
Orbital elements
Apogee altitude
2,167.496 km
Perigee altitude
1,945.402 km
Semi-major axis
8,434.586 km
Eccentricity
0.01317
Inclination
64.8239°
RAAN
219.7631°
Arg. of periapsis
1.3913°
True anomaly
65.78394°
Mean anomaly
64.4136°
Eccentric anomaly
65.09781°
Mean motion
2.80187 °/min
Orbital period
128.49 mins
BSTAR
-0.00027499
Loading maneuver chart data...
Computing Atmospheric mass density...
Loading historical data...
Loading historical data...
Loading historical data...
Loading historical data...
Loading historical data...
Loading historical data...
Loading historical data...

Documentation

Showing up to 5 results
|